Weather History for KRNT - November, 2013

Change the Weather History Date:

Thursday, November 14, 2013

  Actual Average Record
Temperature  
Mean Temperature 46 °F -  
Max Temperature 50 °F 51 °F 62 °F (2001)
Min Temperature 42 °F 39 °F 25 °F (2014)
Degree Days  
Heating Degree Days 19    
Moisture  
Dew Point 40 °F    
Average Humidity 80    
Maximum Humidity 93    
Minimum Humidity 54    
Precipitation  
Precipitation 0.03 in - - ()
Sea Level Pressure  
Sea Level Pressure 30.16 in    
Wind  
Wind Speed 1 mph (SSE)    
Max Wind Speed 7 mph    
Max Gust Speed -    
Visibility 5 miles    
Events Rain    
Averages and records for this station are not official NWS values.
T = Trace of Precipitation, MM = Missing Value Source: NWS Daily Summary

Daily Weather History Graph

Daily Weather History Graph

Search for Another Location

Airport or City:

Trip Planner

Search our weather history database for the weather conditions in past years. The results will help you decide how hot, cold, wet, or windy it might be!

Date:

Astronomy

Nov. 14, 2013 Rise Set
Actual Time 7:12 AM PST 4:33 PM PST
Civil Twilight 6:39 AM PST 5:06 PM PST
Nautical Twilight 6:01 AM PST 5:44 PM PST
Astronomical Twilight 5:25 AM PST 6:20 PM PST
Moon 3:07 PM PST (11/14) 4:02 AM PST (11/14)
Length of Visible Light 10h 27m
Length of Day
9h 20m
Waxing Gibbous, 92% of the Moon is Illuminated
Nov 14
Waxing Gibbous
Nov 17
Full
Nov 25
Last Quarter
Dec 2
New
Dec 9
First Quarter

Hourly Weather History & Observations

Time (PST) Temp. Windchill Dew Point Humidity Pressure Visibility Wind Dir Wind Speed Gust Speed Precip Events Conditions
12:53 AM 46.9 °F - 45.0 °F 93% 30.31 in 8.0 mi Calm Calm - N/A   Clear
1:53 AM 46.0 °F - 44.1 °F 93% 30.29 in 8.0 mi Calm Calm - N/A   Clear
2:53 AM 46.0 °F - 44.1 °F 93% 30.27 in 9.0 mi Calm Calm - N/A   Mostly Cloudy
3:53 AM 46.9 °F - 44.1 °F 90% 30.25 in 9.0 mi Calm Calm - N/A   Overcast
4:26 AM 46.4 °F - 44.6 °F 93% 30.22 in 8.0 mi Calm Calm - N/A   Mostly Cloudy
4:53 AM 46.9 °F - 45.0 °F 93% 30.24 in 8.0 mi Calm Calm - N/A   Overcast
5:13 AM 46.4 °F - 44.6 °F 93% 30.22 in 7.0 mi Calm Calm - N/A   Mostly Cloudy
5:53 AM 46.9 °F - 45.0 °F 93% 30.22 in 8.0 mi Calm Calm - N/A   Overcast
6:53 AM 48.0 °F - 45.0 °F 89% 30.22 in 8.0 mi Calm Calm - N/A   Overcast
7:53 AM 48.0 °F - 45.0 °F 89% 30.21 in 5.0 mi Calm Calm - 0.00 in   Overcast
8:53 AM 48.0 °F - 45.0 °F 89% 30.20 in 6.0 mi SE 3.5 mph - 0.00 in   Overcast
9:36 AM 48.2 °F - 46.4 °F 93% 30.19 in 6.0 mi South 4.6 mph - N/A   Overcast
9:53 AM 48.9 °F - 46.0 °F 90% 30.20 in 6.0 mi SSE 4.6 mph - 0.00 in Rain Light Rain
10:53 AM 48.9 °F - 45.0 °F 86% 30.19 in 6.0 mi South 6.9 mph - 0.00 in   Overcast
11:13 AM 48.2 °F - 44.6 °F 87% 30.16 in 6.0 mi South 6.9 mph - N/A   Overcast
11:30 AM 48.2 °F - 44.6 °F 87% 30.16 in 2.5 mi South 5.8 mph - 0.00 in Rain Light Rain
11:40 AM 48.2 °F - 44.6 °F 87% 30.16 in 3.0 mi SSW 3.5 mph - 0.01 in Rain Light Rain
11:53 AM 48.0 °F - 45.0 °F 89% 30.17 in 5.0 mi Calm Calm - 0.01 in Rain Light Rain
12:53 PM 50.0 °F - 46.0 °F 86% 30.16 in 5.0 mi Calm Calm - 0.00 in   Overcast
1:53 PM 50.0 °F - 45.0 °F 83% 30.14 in 7.0 mi Calm Calm - N/A   Overcast
2:53 PM 50.0 °F - 44.1 °F 80% 30.14 in 9.0 mi NW 6.9 mph - 0.00 in Rain Light Rain
3:53 PM 48.0 °F - 45.0 °F 89% 30.14 in 10.0 mi Calm Calm - 0.02 in   Overcast
4:53 PM 48.0 °F - 32.0 °F 54% 30.13 in 9.0 mi Calm Calm - 0.00 in   Overcast
5:53 PM 46.0 °F - 33.1 °F 61% 30.13 in 7.0 mi Calm Calm - N/A   Clear
6:45 PM 44.6 °F - 32.0 °F 61% 30.11 in 4.0 mi Calm Calm - N/A   Haze
6:53 PM 44.1 °F - 33.1 °F 65% 30.13 in 5.0 mi Calm Calm - N/A   Haze
7:03 PM 44.6 °F - 33.8 °F 66% 30.11 in 4.0 mi Calm Calm - N/A   Haze
7:53 PM 44.1 °F - 36.0 °F 73% 30.12 in 4.0 mi Calm Calm - N/A   Haze
8:04 PM 42.8 °F - 35.6 °F 76% 30.10 in 2.5 mi Calm Calm - N/A   Haze
8:11 PM 42.8 °F - 35.6 °F 76% 30.11 in 3.0 mi Calm Calm - N/A   Haze
8:40 PM 42.8 °F 41.1 °F 35.6 °F 76% 30.10 in 1.8 mi SE 3.5 mph - N/A   Haze
8:43 PM 42.8 °F 41.1 °F 33.8 °F 70% 30.10 in 1.0 mi SE 3.5 mph - N/A   Haze
8:50 PM 42.8 °F 41.1 °F 33.8 °F 70% 30.10 in 0.5 mi SSE 3.5 mph - N/A   Haze
8:53 PM 42.1 °F 40.2 °F 34.0 °F 73% 30.11 in 0.5 mi SE 3.5 mph - N/A   Haze
9:06 PM 42.8 °F - 33.8 °F 70% 30.10 in 2.0 mi Calm Calm - N/A   Haze
9:18 PM 42.8 °F 41.1 °F 33.8 °F 70% 30.10 in 3.0 mi ESE 3.5 mph - N/A   Haze
9:53 PM 42.1 °F - 33.1 °F 70% 30.12 in 5.0 mi Calm Calm - N/A   Haze
10:53 PM 42.1 °F - 33.1 °F 70% 30.11 in 5.0 mi Calm Calm - N/A   Haze
11:53 PM 42.1 °F 40.2 °F 32.0 °F 67% 30.08 in 4.0 mi South 3.5 mph - N/A   Haze